Location: Aranbee
(34.0885°N, 118.2342°W)
Time: 03:45:48
(UTC+00:00)

Courier 1B Rocket - Pass Details

Date: 02 December 2020
Orbit: 920 x 1202 km, 28.2° (Epoch: 16 January)

Event Time Altitude Azimuth Distance (km) Brightness Sun altitude
Exits shadow 13:28:52 12° 251° (WSW) 2,974 7.0 -14.9°
Maximum altitude 13:36:01 56° 177° (S) 1,395 5.9 -13.4°
Drops below altitude 10° 13:43:33 10° 101° (E) 3,091 9.1 -12.0°
Sets 13:46:24 0° 97° (E) 4,028 10.1 -11.4°
